Location: Newark
(34.1333°N, 7.9667°W)
Time: 12:26:57
(UTC+00:00)

FO-29 - Pass Details

Date: 08 June 2023
Orbit: 800 x 1321 km, 98.5° (Epoch: 21 September)

Event Time Altitude Azimuth Distance (km) Brightness Sun altitude
Rises 04:37:26 0° 17° (NNE) 3,428 13.3 -8.3°
Reaches altitude 10° 04:39:45 10° 21° (NNE) 2,537 12.6 -7.9°
Maximum altitude 04:45:19 60° 102° (ESE) 1,075 10.0 -7.0°
Drops below altitude 10° 04:51:33 10° 181° (S) 2,840 11.6 -5.9°
Sets 04:54:15 0° 185° (S) 3,870 12.3 -5.4°
